Hourly Data Report for November 18, 2017

All times are specified in Local Standard Time (LST). Add 1 hour to adjust for Daylight Saving Time where and when it is observed.

GREENWOOD A
NOVA SCOTIA

44°59'00.000" N
64°55'00.000" W
28.00 m
8202000
71397
YZX

Download Data

Hourly Data (November 2017)
Hourly Data Report for November 18, 2017
Temp Definition
°C
Dew Point Temp Definition
°C
Rel Hum Definition
%
Wind Dir Definition
10's deg

Wind Spd Definition
km/h
Visibility Definition
km
Stn Press Definition
kPa
Hmdx Definition


Wind Chill Definition


Weather Definition


TIME
00:00 1.5 -2.4 75 29 39 24.1 100.04     Cloudy
01:00 1.2 0.0 92 28 28 24.1 100.10     Cloudy
02:00 0.8 -1.0 88 28 28 24.1 100.12     Cloudy
03:00 0.5 -3.4 75 29 20 24.1 100.17     Cloudy
04:00 0.5 -2.8 78 29 22 24.1 100.23     Cloudy
05:00 0.4 -2.9 78 29 22 24.1 100.28     Cloudy
06:00 0.0 -2.6 83 27 24 24.1 100.37   -6 Cloudy
07:00 -0.2 -2.6 84 29 24 24.1 100.49   -6 Cloudy
08:00 -0.2 -1.8 89 28 20 24.1 100.54   -5 Cloudy
09:00 -0.1 -1.9 88 31 30 24.1 100.60   -7 Cloudy
10:00 0.0 -2.0 86 29 20 24.1 100.60   -5 Cloudy
11:00 0.7 -2.0 82 29 9 24.1 100.61     Cloudy
12:00 0.8 -2.4 79 25 22 24.1 100.57     Cloudy
13:00 1.4 -2.2 77 24 19 24.1 100.55     Cloudy
14:00 2.6 -1.9 72 24 17 24.1 100.54     Cloudy
15:00 2.6 -1.6 74 25 22 24.1 100.57     Cloudy
16:00 2.2 -1.6 76 25 19 24.1 100.58     Cloudy
17:00 1.8 -1.7 78 23 13 24.1 100.60     Mostly Cloudy
18:00 1.9 -1.3 79 22 9 24.1 100.59     Cloudy
19:00 1.7 -1.3 80 20 4 24.1 100.59     Cloudy
20:00 1.8 -0.9 82 24 6 24.1 100.58     Cloudy
21:00 1.5 -1.0 83 31 4 24.1 100.61     Cloudy
22:00 1.8 -0.9 82 19 7 24.1 100.55     Cloudy
23:00 1.2 -0.5 88 11 4 24.1 100.55     Cloudy

Notes on Data Quality.

Legend

  • E = Estimated
  • M = Missing
  • NA = Not Available
  • ‡ = Partner data that is not subject to review by the National Climate Archives
Date modified: